| time (UTC) | temp C | wind direction | speed KPH | gust KPH | rain 1hr cm | rain 24hr cm | rain mn cm | humidity % | barometer mb |
| 20260509174519 | 17 | 239 | 0.0 | 4.8 | 0.00 | 0.05 | 0.03 | 73 | 1012.7 |
| 20260509173119 | 17 | 143 | 1.6 | 9.7 | 0.00 | 0.05 | 0.03 | 71 | 1012.9 |
| 20260509171602 | 17 | 321 | 1.6 | 6.4 | 0.00 | 0.05 | 0.03 | 74 | 1012.9 |
| 20260509170042 | 16 | 27 | 0.0 | 4.8 | 0.00 | 0.05 | 0.03 | 75 | 1013.3 |
| 20260509164534 | 16 | 206 | 0.0 | 9.7 | 0.00 | 0.05 | 0.03 | 76 | 1013.6 |
| 20260509163022 | 15 | 126 | 0.0 | 9.7 | 0.00 | 0.05 | 0.03 | 76 | 1013.8 |
| 20260509161514 | 15 | 140 | 0.0 | 8.0 | 0.00 | 0.05 | 0.03 | 75 | 1014.1 |
| 20260509160114 | 15 | 95 | 3.2 | 12.9 | 0.00 | 0.05 | 0.03 | 74 | 1014.1 |
| 20260509154556 | 15 | 238 | 1.6 | 9.7 | 0.00 | 0.05 | 0.03 | 74 | 1014.1 |
| 20260509153054 | 15 | 134 | 0.0 | 9.7 | 0.00 | 0.05 | 0.03 | 77 | 1014.2 |
| 20260509151540 | 15 | 336 | 0.0 | 4.8 | 0.00 | 0.05 | 0.03 | 76 | 1014.2 |
| 20260509150039 | 15 | 264 | 0.0 | 8.0 | 0.00 | 0.05 | 0.03 | 77 | 1014.4 |
| 20260509144512 | 15 | 69 | 1.6 | 6.4 | 0.00 | 0.05 | 0.03 | 77 | 1014.3 |
| 20260509143012 | 14 | 56 | 0.0 | 9.7 | 0.00 | 0.05 | 0.03 | 79 | 1014.5 |
| 20260509141552 | 13 | 126 | 0.0 | 4.8 | 0.00 | 0.05 | 0.03 | 82 | 1014.3 |
| 20260509140046 | 13 | 210 | 0.0 | 1.6 | 0.00 | 0.05 | 0.03 | 82 | 1014.0 |
| 20260509134531 | 12 | 140 | 0.0 | 6.4 | 0.00 | 0.05 | 0.03 | 84 | 1014.2 |
| 20260509133028 | 12 | 246 | 0.0 | 1.6 | 0.00 | 0.05 | 0.03 | 87 | 1014.5 |
| 20260509131529 | 11 | 346 | 0.0 | 1.6 | 0.00 | 0.05 | 0.03 | 87 | 1014.8 |
| 20260509130051 | 10 | 293 | 0.0 | 1.6 | 0.00 | 0.05 | 0.03 | 86 | 1015.1 |
| 20260509124529 | 10 | 274 | 0.0 | 4.8 | 0.00 | 0.05 | 0.03 | 88 | 1014.9 |
| 20260509123017 | 10 | 124 | 0.0 | 3.2 | 0.00 | 0.05 | 0.03 | 89 | 1015.1 |
| 20260509121513 | 9 | 122 | 0.0 | 1.6 | 0.00 | 0.05 | 0.03 | 91 | 1015.3 |
| 20260509120015 | 9 | 261 | 0.0 | 1.6 | 0.00 | 0.05 | 0.03 | 92 | 1015.2 |
| 20260509114624 | 8 | 294 | 0.0 | 1.6 | 0.00 | 0.05 | 0.03 | 93 | 1015.4 |
| 20260509113058 | 8 | 320 | 0.0 | 1.6 | 0.00 | 0.05 | 0.03 | 93 | 1015.3 |
| 20260509111531 | 8 | 58 | 0.0 | 0.0 | 0.00 | 0.05 | 0.03 | 93 | 1015.2 |
| 20260509110029 | 8 | 283 | 0.0 | 1.6 | 0.00 | 0.05 | 0.03 | 93 | 1015.0 |
| 20260509104510 | 7 | 325 | 0.0 | 1.6 | 0.00 | 0.05 | 0.03 | 93 | 1014.9 |
| 20260509103011 | 7 | 48 | 0.0 | 0.0 | 0.00 | 0.05 | 0.03 | 93 | 1014.7 |
| 20260509101600 | 7 | 47 | 0.0 | 0.0 | 0.00 | 0.05 | 0.03 | 93 | 1015.0 |
| 20260509100052 | 7 | 49 | 0.0 | 0.0 | 0.00 | 0.05 | 0.03 | 93 | 1014.8 |
| 20260509094541 | 7 | 49 | 0.0 | 0.0 | 0.00 | 0.05 | 0.03 | 93 | 1014.7 |
| 20260509093041 | 7 | 49 | 0.0 | 0.0 | 0.00 | 0.05 | 0.03 | 93 | 1014.7 |
| 20260509091544 | 7 | 49 | 0.0 | 0.0 | 0.03 | 0.05 | 0.03 | 92 | 1014.8 |
| 20260509090042 | 7 | 49 | 0.0 | 0.0 | 0.03 | 0.05 | 0.03 | 92 | 1014.9 |
| 20260509084539 | 7 | 49 | 0.0 | 0.0 | 0.03 | 0.05 | 0.03 | 91 | 1014.9 |
| 20260509083038 | 7 | 49 | 0.0 | 0.0 | 0.00 | 0.03 | 0.00 | 90 | 1014.7 |
| 20260509081540 | 7 | 49 | 0.0 | 0.0 | 0.00 | 0.03 | 0.00 | 90 | 1014.8 |
| 20260509080044 | 7 | 49 | 0.0 | 0.0 | 0.00 | 0.03 | 0.00 | 90 | 1014.9 |
| 20260509074540 | 7 | 49 | 0.0 | 0.0 | 0.00 | 0.03 | 0.00 | 91 | 1014.5 |
| 20260509073045 | 7 | 49 | 0.0 | 0.0 | 0.00 | 0.03 | 0.00 | 91 | 1014.4 |
| 20260509071538 | 7 | 49 | 0.0 | 0.0 | 0.00 | 0.03 | 0.00 | 91 | 1014.4 |
| 20260509070037 | 7 | 49 | 0.0 | 0.0 | 0.00 | 0.03 | 0.00 | 90 | 1014.4 |
| 20260509064546 | 7 | 49 | 0.0 | 0.0 | 0.00 | 0.03 | 0.00 | 90 | 1014.6 |
| 20260509063036 | 7 | 49 | 0.0 | 0.0 | 0.00 | 0.03 | 0.00 | 90 | 1014.9 |
| 20260509061513 | 7 | 49 | 0.0 | 0.0 | 0.00 | 0.03 | 0.00 | 90 | 1014.9 |
| 20260509060004 | 7 | 49 | 0.0 | 0.0 | 0.00 | 0.03 | 0.00 | 89 | 1015.0 |
| 20260509054606 | 7 | 49 | 0.0 | 0.0 | 0.00 | 0.03 | 0.00 | 89 | 1014.9 |
| 20260509053052 | 8 | 49 | 0.0 | 0.0 | 0.00 | 0.03 | 0.00 | 88 | 1015.0 |
| 20260509051527 | 8 | 49 | 0.0 | 0.0 | 0.00 | 0.03 | 0.00 | 88 | 1015.0 |
| 20260509050028 | 8 | 49 | 0.0 | 0.0 | 0.00 | 0.03 | 0.00 | 87 | 1015.1 |
| 20260509044506 | 8 | 49 | 0.0 | 0.0 | 0.00 | 0.03 | 0.00 | 87 | 1015.2 |
| 20260509043005 | 8 | 49 | 0.0 | 0.0 | 0.00 | 0.03 | 0.00 | 86 | 1015.3 |
| 20260509041546 | 8 | 49 | 0.0 | 0.0 | 0.00 | 0.03 | 0.00 | 86 | 1015.3 |
| 20260509040044 | 7 | 49 | 0.0 | 0.0 | 0.00 | 0.03 | 0.03 | 85 | 1015.2 |
| 20260509034524 | 7 | 49 | 0.0 | 0.0 | 0.00 | 0.03 | 0.03 | 85 | 1015.2 |
| 20260509033023 | 7 | 49 | 0.0 | 0.0 | 0.00 | 0.03 | 0.03 | 85 | 1015.1 |
| 20260509031522 | 7 | 49 | 0.0 | 0.0 | 0.00 | 0.03 | 0.03 | 84 | 1014.9 |
| 20260509030012 | 7 | 49 | 0.0 | 1.6 | 0.00 | 0.03 | 0.03 | 83 | 1014.8 |
| 20260509024510 | 6 | 50 | 0.0 | 1.6 | 0.00 | 0.03 | 0.03 | 85 | 1014.6 |
| 20260509023008 | 5 | 281 | 0.0 | 0.0 | 0.00 | 0.03 | 0.03 | 86 | 1014.8 |
| 20260509021508 | 6 | 281 | 0.0 | 0.0 | 0.00 | 0.03 | 0.03 | 84 | 1014.6 |
| 20260509020006 | 6 | 280 | 0.0 | 0.0 | 0.00 | 0.03 | 0.03 | 83 | 1014.7 |
| 20260509014515 | 6 | 280 | 0.0 | 0.0 | 0.00 | 0.03 | 0.03 | 83 | 1014.6 |
| 20260509013008 | 7 | 281 | 0.0 | 0.0 | 0.00 | 0.03 | 0.03 | 82 | 1014.6 |
| 20260509011547 | 7 | 280 | 0.0 | 0.0 | 0.00 | 0.03 | 0.03 | 80 | 1014.4 |
| 20260509010046 | 7 | 281 | 0.0 | 0.0 | 0.00 | 0.03 | 0.03 | 80 | 1014.0 |
| 20260509004527 | 8 | 281 | 0.0 | 0.0 | 0.00 | 0.03 | 0.03 | 78 | 1013.5 |
| 20260509003027 | 8 | 281 | 0.0 | 0.0 | 0.00 | 0.03 | 0.03 | 76 | 1013.3 |
| 20260509001530 | 8 | 281 | 0.0 | 0.0 | 0.00 | 0.03 | 0.03 | 74 | 1013.4 |
| 20260509000025 | 10 | 281 | 0.0 | 0.0 | 0.00 | 0.03 | 0.03 | 72 | 1013.3 |
| 20260508234524 | 11 | 281 | 0.0 | 0.0 | 0.00 | 0.03 | 0.03 | 65 | 1013.1 |
| 20260508233024 | 12 | 281 | 0.0 | 1.6 | 0.00 | 0.03 | 0.03 | 62 | 1012.9 |
| 20260508231523 | 13 | 269 | 0.0 | 0.0 | 0.00 | 0.03 | 0.03 | 60 | 1012.7 |
| 20260508230022 | 13 | 281 | 0.0 | 8.0 | 0.00 | 0.03 | 0.03 | 55 | 1012.4 |
| 20260508224524 | 14 | 279 | 1.6 | 9.7 | 0.00 | 0.03 | 0.03 | 52 | 1012.1 |
| 20260508223024 | 15 | 258 | 1.6 | 11.3 | 0.00 | 0.03 | 0.03 | 53 | 1012.1 |
| 20260508221503 | 15 | 280 | 4.8 | 16.1 | 0.00 | 0.03 | 0.03 | 51 | 1012.3 |
| 20260508220011 | 15 | 25 | 1.6 | 14.5 | 0.00 | 0.03 | 0.03 | 52 | 1012.3 |
| 20260508214545 | 15 | 299 | 0.0 | 8.0 | 0.00 | 0.03 | 0.03 | 52 | 1012.4 |
| 20260508213051 | 15 | 340 | 0.0 | 9.7 | 0.00 | 0.03 | 0.03 | 52 | 1012.6 |
| 20260508211540 | 15 | 335 | 0.0 | 11.3 | 0.00 | 0.03 | 0.03 | 55 | 1012.3 |
| 20260508210035 | 15 | 232 | 3.2 | 12.9 | 0.00 | 0.03 | 0.03 | 56 | 1012.3 |
| 20260508204532 | 14 | 172 | 3.2 | 9.7 | 0.00 | 0.03 | 0.03 | 59 | 1012.4 |
| 20260508203029 | 13 | 276 | 0.0 | 11.3 | 0.00 | 0.03 | 0.03 | 63 | 1012.4 |
| 20260508201533 | 13 | 283 | 1.6 | 9.7 | 0.03 | 0.03 | 0.03 | 66 | 1012.7 |
| 20260508200028 | 12 | 293 | 0.0 | 4.8 | 0.03 | 0.03 | 0.03 | 72 | 1012.7 |
| 20260508194531 | 11 | 314 | 0.0 | 9.7 | 0.03 | 0.03 | 0.03 | 76 | 1012.8 |
| 20260508193028 | 11 | 98 | 0.0 | 19.3 | 0.03 | 0.03 | 0.03 | 75 | 1013.0 |
| 20260508191515 | 13 | 280 | 0.0 | 6.4 | 0.00 | 0.00 | 0.00 | 55 | 1012.4 |
| 20260508190012 | 14 | 248 | 0.0 | 8.0 | 0.00 | 0.00 | 0.00 | 53 | 1011.6 |
| 20260508184553 | 15 | 52 | 0.0 | 11.3 | 0.00 | 0.00 | 0.00 | 50 | 1011.5 |
| 20260508183049 | 15 | 310 | 1.6 | 16.1 | 0.00 | 0.00 | 0.00 | 48 | 1011.8 |
| 20260508181557 | 14 | 306 | 1.6 | 8.0 | 0.00 | 0.00 | 0.00 | 49 | 1012.1 |
| 20260508180041 | 14 | 357 | 3.2 | 17.7 | 0.00 | 0.00 | 0.00 | 46 | 1012.0 |